Regional Weather Roundup
Issued by NWS

Home | Current Version | Previous Version | Text Only | Print | Product List | Glossary Off
Versions: 1 2 3 4 5 6 7 8 9 10 11 12 13 14 15 16 17 18 19 20 21 22 23 24 25 26 27 28 29 30 31 32 33 34 35 36 37 38 39 40 41 42 43 44 45 46 47 48 49 50

292
ASUS44 KMEG 201600
RWRTN
TENNESSEE HOURLY STATE WEATHER ROUNDUP
NATIONAL WEATHER SERVICE MEMPHIS TN
1000 AM CST MON FEB 20 2017

TNZ002-004-019-021-049-052-054-088>092-201700-
WEST TENNESSEE

CITY           SKY/WX    TMP DP  RH WIND       PRES   REMARKS
MEMPHIS INTL   PTSUNNY   71  54  54 S13       30.10R
NWS MEMPHIS      N/A     71 N/A N/A MISG        N/A
JACKSON        PTSUNNY   64  52  64 VRB5      30.13S
UNION CITY     SUNNY     63  52  67 CALM      30.12S
PARIS          SUNNY     59  50  72 SE8       30.14S
$$

TNZ008-025-027-028-033-062-065-066-201700-
NORTH MIDDLE TENNESSEE

CITY           SKY/WX    TMP DP  RH WIND       PRES   REMARKS
NASHVILLE      CLOUDY    63  48  58 CALM      30.17F
CLARKSVILLE    CLOUDY    61  50  67 SE8       30.15F
SMYRNA         MOSUNNY   62  51  67 VRB5      30.18F
CROSSVILLE     MOSUNNY   59  45  59 SE7       30.23S
$$

TNZ061-075-076-078-094-096-097-201700-
SOUTH MIDDLE TENNESSEE

CITY           SKY/WX    TMP DP  RH WIND       PRES   REMARKS
TULLAHOMA      SUNNY     63  46  55 SE5       30.18F
MCMINNVILLE    SUNNY     64  50  59 E5        30.18F
COLUMBIA       SUNNY     61  61 100 CALM      30.14S
SHELBYVILLE    SUNNY     63  52  67 SE7       30.17F
$$

TNZ017-018-042-046-047-201700-
NORTHEAST TENNESSEE

CITY           SKY/WX    TMP DP  RH WIND       PRES   REMARKS
TRI CITIES     MOSUNNY   54  45  71 S3        30.24F
$$

TNZ012-013-036-069-073-074-201700-
CENTRAL EAST TENNESSEE

CITY           SKY/WX    TMP DP  RH WIND       PRES   REMARKS
KNOXVILLE      PTSUNNY   56  45  66 E3        30.22F
OAK RIDGE      CLOUDY    59  45  59 E3        30.24F
GATLINBURG     SUNNY     55  45  67 CALM      30.22F
$$

TNZ083-085-099-201700-
SOUTHEAST TENNESSEE

CITY           SKY/WX    TMP DP  RH WIND       PRES   REMARKS
CHATTANOOGA    PTSUNNY   58  46  64 VRB3      30.23F
$$

SKY/WX REPORTED AS FAIR MEANS FEW OR NO CLOUDS BELOW
12 THOUSAND FEET.





USA.gov is the U.S. government's official web portal to all federal, state and local government web resources and services.